CAPE
1691 1805 2102 2447 2430 2441 2448 2571 2651 2634 2660 2646 2552 2458 2305 2140 1954 1788 1695 1745 1820 1810 1430 1048 963 859 806 780 916 1065 937 873 796 841 1041 1062 960 1094 989 1066 1064 1098 1290 1340 1518 1603 1635 1698 1628 1586 1589 1497 1525 1490 1537 1582 1538 1651 1584 1545 1638 1579 1518 1454 1477 1424 1328 1297 1280 1301 1317 1289 1054 803 828 829 853 779 828 539 340 278 310 442 430
1733 1600 2174 2389 2278 2355 2378 2466 2527 2542 2569 2517 2423 2332 2197 2056 1983 1877 1882 1857 1614 1349 1063 980 996 891 858 1068 1237 1073 1092 1090 1101 1147 1142 1114 1077 917 1143 1177 1168 1172 1345 1277 1343 1395 1411 1591 1511 1454 1672 1555 1539 1565 1539 1495 1547 1523 1570 1531 1504 1493 1506 1480 1457 1345 1394 1489 1417 1334 1254 1184 1038 780 694 570 577 640 541 466 441 293 348 397 384
1658 1541 2103 2143 2282 2236 2440 2412 2439 2424 2421 2347 2274 2180 2057 2030 1989 1848 1652 1525 1280 1106 1011 1035 974 852 784 1228 1327 1203 1188 1171 1221 1258 1098 907 853 1052 1153 1229 1358 1173 1404 1455 1396 1453 1479 1589 1596 1634 1682 1746 1657 1627 1465 1522 1482 1395 1421 1441 1482 1446 1490 1549 1574 1729 1633 1554 1538 1345 1079 977 913 799 683 659 477 417 520 504 408 330 296 452 538
1821 1476 1660 1949 2178 2240 2271 2361 2351 2263 2221 2232 2211 2098 1968 1934 1798 1653 1471 1382 1228 1101 903 1015 922 854 1042 1340 1288 1176 1174 1308 1257 1127 1001 1115 1272 1238 1370 1515 1508 1451 1338 1614 1625 1431 1414 1443 1439 1554 1585 1815 1738 1663 1504 1473 1502 1409 1312 1483 1424 1447 1373 1340 1450 1656 1760 1761 1646 1642 584 566 544 543 558 470 441 353 369 382 389 424 414 573 532
1642 1292 1542 1666 1879 2161 2204 2204 2143 2133 2101 2097 2078 1984 1863 1788 1653 1550 1493 1308 1217 951 813 946 907 915 1333 1374 1151 1091 1121 1180 1162 1105 1132 1494 1527 1552 1514 1576 1678 1434 1303 1503 1576 1481 1447 1479 1536 1679 1673 1714 1789 1575 1524 1543 1539 1518 1408 1334 1359 1326 1248 1241 1096 1102 1628 1942 2294 2521 247 263 238 349 412 442 392 474 299 224 218 267 286 272 290
1572 1514 1435 1568 1260 1889 2078 2098 2081 2062 1962 1931 1934 1828 1742 1624 1477 1402 1336 1114 926 882 982 1033 1049 1085 1228 1262 1141 1183 1257 1315 1366 1509 1707 1711 1893 1641 1518 1522 1625 1417 1597 1498 1553 1600 1495 1568 1514 1533 1644 1742 1639 1667 1498 1505 1464 1314 1216 1253 1088 992 974 773 832 1058 1146 1268 2229 1418 185 158 185 352 418 317 314 282 336 445 372 329 329 285 240
1544 1369 1173 1247 1367 1594 1958 1950 1920 1937 1897 1776 1718 1600 1541 1448 1342 1263 1121 994 943 975 1074 1114 1108 1144 1338 1366 1339 1440 1500 1533 1489 1658 1891 1806 1766 1592 1605 1559 1574 1443 1543 1450 1618 1627 1477 1460 1487 1532 1503 1494 1418 1590 1370 1256 1229 1181 1054 843 758 789 731 818 516 811 1189 765 211 306 156 155 244 330 742 535 465 736 924 932 767 598 383 316 252
1604 1243 1106 1058 1323 1876 1924 1787 1615 1712 1630 1688 1570 1490 1291 1167 1093 1120 993 928 1016 996 1019 928 914 948 967 1063 1083 1114 1602 1634 1566 1703 1905 1956 1778 1750 1654 1635 1524 1587 1463 1605 1304 1257 1219 1231 1399 1412 1467 1546 1532 1416 1358 1242 1134 1012 900 722 596 584 712 322 743 556 787 628 149 342 313 281 232 623 1053 967 862 1220 1089 886 900 930 854 554 347
1554 1356 1346 1492 1437 1609 1856 1780 1616 1420 1520 1413 1379 1298 1167 1044 982 942 911 869 826 789 852 800 763 785 802 773 695 961 1382 1599 1805 1800 1770 1844 1820 1776 1628 1680 1607 1597 1586 1890 1746 1600 1210 1362 1519 1556 1547 1584 1494 1399 1337 1155 1011 829 706 604 555 506 306 735 532 848 1651 69 90 148 157 362 611 805 1152 1119 916 878 985 965 1109 1154 1175 948 717
1531 1295 1504 1185 1702 1889 1860 1774 1675 1364 1273 1220 1189 1131 1071 1025 1022 905 796 829 768 722 648 717 785 715 771 751 804 964 1329 1709 1866 1921 1798 1811 1783 1724 1665 1441 1568 1437 1297 1280 1380 1566 1509 1606 1706 1650 1560 1575 1421 1321 1228 1097 936 782 631 466 282 383 522 520 765 1180 392 285 358 563 638 581 454 774 934 926 830 905 882 903 1160 1352 1259 921 622
1428 1340 1211 1464 1533 1830 1774 1774 1614 1402 1249 1270 1248 1161 1075 1074 980 948 852 777 782 730 696 785 769 708 752 805 868 1093 1626 2127 2255 2317 2144 1923 1764 1728 1609 1531 1395 1256 1155 1266 1585 1767 1764 1784 1656 1645 1562 1451 1323 1180 1105 1049 790 615 479 571 417 314 720 396 723 137 84 227 252 278 460 534 327 782 805 794 954 858 731 696 1073 1139 1132 986 723
1543 1807 1435 1934 1902 1659 1739 1724 1560 1470 1392 1336 1258 1141 1048 990 907 899 834 790 775 808 806 770 932 756 779 932 1042 1139 1722 1976 1996 1906 1832 1751 1599 1511 1390 1430 1339 1170 1150 1491 1694 1796 1849 1760 1632 1566 1497 1380 1310 1204 1079 934 731 505 556 510 600 537 630 791 894 499 512 610 497 560 441 317 358 331 568 1021 1207 1026 1015 982 1005 939 927 983 924
1900 1778 1903 1881 1365 1690 1742 1669 1538 1446 1334 1297 1194 1037 1062 993 936 884 865 1050 948 779 772 777 833 966 1073 951 900 1119 1580 1790 1802 1666 1640 1634 1521 1390 1400 1325 1330 1142 1020 1368 1664 1712 1748 1750 1643 1556 1501 1385 1304 1180 1108 915 766 642 655 653 575 560 593 714 721 422 608 424 520 297 420 504 534 728 752 772 1040 936 958 942 822 792 738 731 729
2292 1752 1933 1365 1066 1623 1611 1620 1570 1420 1349 1347 1253 1225 1142 1069 1006 955 985 1176 963 852 981 894 869 960 1080 1053 963 1081 1308 1585 1648 1597 1488 1492 1544 1496 1351 1323 1336 1083 1085 1261 1475 1644 1621 1612 1631 1560 1461 1386 1278 1189 1096 831 602 507 495 558 623 786 905 736 457 665 758 622 804 703 647 542 589 689 594 563 488 659 683 644 608 574 509 480 445
2321 2036 2068 1432 1334 1162 1595 1562 1600 1458 1364 1316 1379 1369 1272 1301 1257 1194 1258 963 853 941 980 910 894 915 805 879 1256 1310 1318 1422 1509 1486 1537 1472 1439 1374 1284 1320 1279 1065 1038 1238 1559 1670 1674 1620 1506 1499 1373 1252 1110 996 904 789 544 474 437 506 378 369 841 738 274 463 847 575 521 463 458 378 729 566 334 489 430 372 334 400 416 428 404 371 334
2138 2343 1675 1652 1334 1362 1276 1512 1548 1490 1345 1445 1445 1441 1419 1398 1352 1268 1271 1146 1150 1324 1336 1124 1098 923 1204 1455 1413 1383 1304 1268 1365 1580 1518 1381 1365 1350 1368 1360 1218 1026 1037 1229 1499 1694 1648 1532 1495 1389 1301 1202 1094 996 863 659 513 335 481 599 380 730 921 1911 559 462 506 468 509 541 489 452 860 384 410 298 424 413 299 261 233 215 237 219 202
2648 2226 2039 1674 1474 1319 1138 1130 1147 1418 1469 1522 1506 1496 1438 1460 1486 1494 1445 1281 1276 1308 1363 1450 1468 1767 1562 1366 1325 1300 1212 1299 1616 1556 1456 1402 1333 1306 1255 1238 1254 1208 1176 1404 1620 1648 1684 1662 1433 1352 1342 1108 1040 954 722 554 433 426 490 362 528 746 1179 2162 744 894 660 589 689 488 543 390 482 507 540 416 415 305 302 317 262 205 158 79 102
2786 2388 2098 1610 1680 1433 1378 878 1256 1103 1053 1365 1506 1508 1557 1518 1450 1528 1586 1540 1414 1337 1579 1697 1760 1630 1401 1342 1285 1239 1323 1640 1613 1411 1372 1384 1280 1148 1191 1236 1238 1306 1387 1484 1732 1768 1691 1740 1599 1465 1224 1082 915 831 644 415 401 431 298 471 531 935 1359 1272 696 741 745 584 572 637 429 445 534 294 244 246 236 464 335 261 150 88 73 158 144
2363 2326 2153 2048 1795 1690 1348 1274 1121 1046 861 711 936 1392 1618 1497 1493 1573 1600 1435 1414 1432 1462 1624 1693 1571 1457 1355 1309 1352 1700 1795 1646 1616 1529 1358 1231 1124 1170 1262 1244 1282 1296 1433 1696 1738 1713 1717 1591 1251 1154 1050 863 680 555 400 311 274 472 510 884 690 1383 1430 464 633 622 634 488 365 250 458 390 167 503 400 351 310 261 175 128 42 63 60 25
2517 2302 1754 1685 1902 1876 1549 1186 1244 1232 884 875 907 1121 1578 1516 1499 1581 1474 1384 1380 1414 1459 1539 1508 1508 1434 1338 1327 1605 1868 1686 1628 1518 1397 1361 1239 982 1185 1171 1213 1224 1204 1558 1746 1703 1686 1752 1423 1202 1072 953 758 572 484 397 318 272 405 557 633 974 1442 838 541 615 566 540 600 365 474 450 341 360 336 358 228 146 178 59 0 2 97 182 144
2599 2416 2422 1848 1376 1723 1737 1504 1522 1247 1103 1302 1257 1261 1438 1639 1575 1460 1430 1427 1459 1381 1476 1390 1318 1349 1316 1335 1510 1334 1563 1571 1437 1092 1440 980 1322 1071 1026 1118 1138 1146 1223 1589 1528 1647 1700 1626 1306 1158 1009 778 682 561 468 420 310 489 422 546 840 1225 623 493 546 632 638 562 486 344 380 340 285 119 150 132 83 58 12 8 120 87 80 68 31
2658 2092 2171 1567 1949 1553 1851 1924 1720 1431 1398 1510 1370 1197 1658 1346 1339 1274 1285 1496 1454 1305 1380 1062 1049 1010 1058 1147 1259 1344 1532 1324 1288 1279 862 1072 1192 1147 973 944 1019 1129 1446 1488 1568 1534 1502 1479 1270 1049 1058 829 622 400 450 526 446 279 423 598 871 1194 1278 851 567 848 809 631 473 295 230 159 154 107 101 60 19 26 38 30 39 41 25 45 57
2468 2434 2041 1524 2372 1666 2015 1867 1585 1671 1672 1440 1482 1441 1543 1403 1350 1288 1084 995 987 1274 1033 1139 1017 847 642 557 1305 1539 1439 1394 1266 1110 1141 1011 936 1060 900 800 952 1328 1388 1545 1508 1403 1429 1409 1232 1191 936 839 734 612 241 116 251 423 651 815 1343 1147 1248 1148 735 928 660 493 299 202 145 116 101 101 74 73 59 38 12 28 33 21 14 12 8
2481 2315 2614 1682 2110 2122 2024 1969 1964 1768 1630 1803 1691 1510 1327 1393 1536 1341 1258 1066 999 1215 1310 1253 1012 832 505 730 1215 1238 1422 1622 1340 1258 1135 870 1268 1142 842 765 954 1347 1448 1506 1459 1345 1359 1352 1236 1144 1121 771 1218 785 439 195 245 566 874 1574 870 871 1190 927 557 579 597 281 210 145 127 119 132 106 70 58 53 63 50 28 22 26 0 4 11
2458 1878 2058 1618 1521 1819 1993 1898 1768 1931 1766 1856 1865 1517 1360 1723 1183 1368 1306 1068 981 1039 1418 1446 1359 826 682 1088 924 1457 1858 2088 1436 1277 974 905 838 692 779 594 560 575 1257 1088 1472 1530 1344 1390 1166 961 813 994 913 847 365 242 486 1012 872 640 929 1058 705 651 653 584 556 346 165 109 99 97 93 79 60 64 57 38 5 17 12 2 1 1 3
2236 1792 2231 1770 1569 1588 1474 1782 1816 1766 1665 1833 1631 1692 1669 1590 1211 1038 1275 1426 960 1309 1117 1592 1609 1155 930 1319 800 1649 2149 1144 1544 1096 617 1034 806 697 394 227 194 231 368 420 644 1650 1716 1380 793 578 884 1013 1160 1067 817 680 728 653 676 863 840 885 520 765 489 738 515 331 167 95 73 85 64 72 68 71 44 6 10 18 5 2 2 1 0
2057 1990 1885 1918 1510 1029 1463 1732 1900 1481 1611 1646 1463 1601 1374 1129 1019 1016 974 1288 1148 1064 1044 1723 1359 1964 1905 1845 1822 1477 1711 2571 1266 1308 765 732 786 733 296 139 261 272 230 376 355 651 1106 1026 886 733 1091 1198 936 859 823 752 713 574 573 672 655 582 646 444 688 665 370 221 142 88 110 83 77 73 69 54 53 20 7 1 1 2 1 0 0
2188 2388 1875 2297 1667 1593 1122 1534 1589 1704 1446 1296 1411 1118 1244 1186 1123 889 952 807 1492 1349 1905 1728 1441 1558 1641 1549 1811 1636 1254 1397 1846 1565 842 974 1014 619 536 146 239 299 175 414 317 639 1157 1034 938 913 1101 878 559 641 540 566 683 541 579 688 725 680 784 715 636 580 469 271 133 162 122 29 7 10 6 15 10 2 1 2 2 3 4 0 0
2296 2233 2081 2249 2248 1357 1611 1394 1879 1664 2049 1643 1553 1392 1042 811 971 1104 876 740 930 1393 1420 1796 1812 1632 1804 1878 1378 1692 1171 995 1540 1568 1356 999 870 812 714 417 315 246 33 371 288 481 929 1097 793 1074 1112 865 714 488 426 546 600 659 597 744 767 848 699 624 438 500 447 320 320 106 92 61 87 4 1 6 1 0 0 2 2 2 0 0 0
2244 2359 2180 1841 1468 1185 1148 1547 1521 1842 1419 1497 1327 1584 1537 1004 1085 731 1272 1198 1235 1434 1232 1459 1584 1739 1598 1402 1292 1079 1024 1712 1117 1754 1497 1405 1229 787 836 785 507 196 91 353 266 306 984 1027 940 936 840 959 658 557 451 534 504 538 676 694 804 842 722 664 460 231 360 373 302 47 117 63 73 10 5 1 4 13 11 6 3 0 0 0 0
1908 2298 2272 1825 1387 1392 1309 767 1290 1038 1116 1037 1056 1559 1302 1028 879 1168 1107 1084 1044 1627 940 952 1106 1647 1471 1236 1235 748 695 1230 1219 1614 838 1495 1242 1085 1256 1049 656 284 202 283 306 392 694 843 916 774 1083 920 727 537 406 316 402 457 688 710 784 722 787 658 738 607 408 494 419 173 23 16 58 162 61 96 20 14 7 1 0 0 0 0 0
2443 2306 1502 954 1095 1559 1254 1079 1266 959 1104 939 1284 1314 1310 1058 1109 1118 1235 1059 911 869 821 899 1260 1426 1114 827 1256 1141 996 1352 1084 921 1379 976 1518 1456 1193 896 991 628 241 205 236 345 470 885 827 844 894 1006 824 472 406 383 384 380 426 762 648 866 733 762 648 729 706 477 548 377 20 7 52 25 114 40 7 1 0 0 0 0 0 0 0
2263 1768 1594 1540 1196 1166 1321 990 1043 1045 1212 1132 1303 1642 1177 957 1254 1231 1225 971 1024 831 966 688 1119 1282 1249 1311 1316 1384 1276 1027 1049 1214 798 1066 1584 1193 1339 1198 1202 842 392 306 236 290 397 947 734 548 654 748 936 782 476 478 466 604 619 801 1004 823 847 805 891 744 560 444 429 534 441 184 133 220 72 19 0 0 0 0 0 0 0 1 9
1503 1426 1249 1018 1234 854 1041 1050 1020 923 907 1174 1014 1304 1412 1128 1702 1120 1015 990 1176 1371 1133 1382 888 913 1486 1832 1600 1443 1438 1149 1116 1055 1140 1010 1280 1538 1618 1112 1005 1108 592 430 273 335 380 874 1168 548 530 701 993 998 601 651 619 819 1037 862 760 800 584 770 918 764 657 545 632 741 499 547 431 37 14 6 0 0 0 0 0 0 24 44 29
1545 1711 1682 1466 931 955 1030 979 852 919 1055 1168 1174 1260 1286 1322 1551 1602 1466 1490 1458 1637 1680 1302 1255 854 1655 1423 1267 1431 1316 918 1045 1109 1261 797 789 1644 1192 1336 1320 1147 959 562 379 395 365 443 1094 1022 1146 1020 886 1183 716 678 798 894 1085 1004 787 926 774 856 808 803 664 788 607 834 757 424 427 151 19 14 0 0 0 0 2 64 138 137 148
1886 1946 1729 1610 1837 1364 1396 1158 1024 1090 1107 1444 1419 1462 1453 1459 1700 1379 1535 1561 1613 1565 1838 1587 1302 1011 1096 1545 931 907 825 1054 1100 1054 1094 1017 727 879 1380 1369 1280 1212 1191 991 600 402 304 590 774 1067 1096 1035 1060 1080 934 860 1053 1126 1159 1014 782 938 707 906 929 705 672 565 722 834 820 275 256 155 58 0 0 0 4 5 140 172 131 99 160
2002 2080 1895 1700 1935 1925 1632 1544 1433 1350 1319 1414 1590 1925 1855 1486 1169 1042 1614 1861 1618 1535 1243 1372 1336 1012 990 749 986 870 856 988 1086 1159 1362 1151 986 817 855 1597 1471 1203 1512 1289 810 219 239 358 479 608 982 1067 460 839 896 880 1099 1207 1064 1014 929 810 873 897 997 892 1044 704 508 807 790 360 247 240 326 5 70 31 143 242 354 490 312 317 174
2231 2061 1932 1774 1884 1896 2203 1857 1564 1338 1562 1724 1473 1597 1865 2030 2058 1988 1609 1636 1096 922 1420 1062 988 882 1689 915 924 871 944 1117 1092 1104 1168 1019 912 798 661 717 1276 1637 1190 1310 1359 919 658 387 363 449 514 915 677 659 1023 854 1110 1114 1015 974 798 715 809 1112 939 862 789 776 593 608 360 747 442 439 938 884 914 262 252 291 210 225 378 211 71
2063 1813 1798 1874 1853 1952 1913 1487 1271 1538 1522 1476 1646 1669 1751 1728 1882 1993 1834 1973 1501 1108 1200 994 1044 1496 1232 1495 1190 1139 1233 1222 1273 1034 1070 1105 1043 891 724 633 715 931 737 772 786 944 954 1045 464 410 424 555 685 582 970 725 737 858 700 1044 784 931 1024 923 875 688 699 635 465 696 410 527 519 358 512 336 715 978 320 142 183 88 284 255 172
1589 1428 1708 1559 1641 1682 1965 1797 1508 1436 1643 1618 1714 1713 1498 1361 1312 1536 1610 1547 1520 1310 1195 1452 961 1460 1295 1539 1172 1258 1430 1372 1192 886 1001 743 659 825 699 603 848 613 711 643 757 847 1320 1681 1477 1060 650 738 794 678 971 770 840 608 668 1263 1190 1307 1018 1032 943 819 600 705 837 641 378 546 379 462 544 695 783 952 888 960 639 419 394 361 293
1373 1290 1514 1639 1643 1487 1250 1617 1568 1443 1428 1416 1558 1492 1456 1327 1132 1227 1426 1466 1307 1392 1276 1330 1090 1010 744 854 1290 1473 1514 1242 1125 1052 1101 823 619 612 788 594 776 932 617 604 584 1007 1695 2090 2101 1970 1351 1247 1107 914 1122 1076 1083 1290 1112 1172 1217 1062 1032 986 590 645 788 637 776 476 298 383 397 415 348 742 682 743 672 837 980 820 442 394 350
1544 1447 1596 1714 1479 1520 1638 1490 1376 1395 1185 1679 1632 1581 1344 1410 1283 1638 1708 1640 1488 1387 1381 898 754 1012 673 951 1162 1390 1399 1340 853 848 853 814 826 758 766 771 978 706 804 826 1024 880 1259 1146 1078 1102 707 730 641 1113 1312 1362 1114 734 633 806 1051 839 624 677 1027 608 1134 597 690 554 617 508 502 383 351 364 502 497 394 531 1111 878 887 791 444
1311 1304 1620 1710 1691 1641 1566 1696 1502 1277 1354 1365 1395 1459 1454 1419 1433 1376 1820 1680 1478 1370 1198 1293 1300 1220 939 846 971 1524 1090 877 1051 886 1004 978 956 905 717 1037 1073 961 870 947 781 1232 970 1281 1121 638 744 573 722 1126 1401 1262 206 628 1085 730 366 508 634 518 794 599 579 681 632 631 508 696 946 531 390 351 330 372 253 386 622 491 888 955 472
1406 1534 1538 1396 1370 1220 1419 1360 1424 1388 1422 1133 1151 1250 1418 1469 1451 1514 1445 1206 1210 1307 1408 1424 1637 1572 1568 1012 802 1072 1027 965 881 838 1023 1112 1084 878 1051 1202 1206 1086 979 740 473 827 531 740 971 571 362 306 406 931 529 930 239 731 462 386 643 679 352 615 333 542 444 734 737 709 768 767 825 612 457 396 302 420 375 384 555 304 744 834 739
1220 1230 1239 1182 1171 1208 1180 947 994 1067 1403 1090 1240 1280 1312 1309 1547 1566 1495 1302 1237 1302 1165 1356 1598 1496 1244 1207 898 961 1211 1346 1344 926 951 978 919 1162 1274 1266 1105 1142 979 849 658 829 1047 867 576 605 286 707 646 814 825 1143 1140 1121 902 620 322 285 304 557 748 642 754 630 532 868 838 543 918 649 500 623 499 464 444 582 181 123 657 847 787
1346 893 1228 1129 1160 1178 1256 1326 1188 1173 1211 1320 1264 1415 1446 1372 1484 1503 1532 1114 1183 1395 1567 1608 1676 1630 1512 1365 1146 1160 1004 1157 1324 1397 1112 968 1053 1214 1103 1086 1313 1186 796 764 779 694 498 868 805 874 1572 1863 1574 991 1225 983 1040 557 799 1407 1048 351 452 862 379 275 672 1262 972 765 625 575 838 622 612 736 529 486 541 569 427 536 450 856 948
1197 892 920 1106 1230 1177 1316 1382 1300 1273 1022 1261 1331 1343 1465 1428 1530 1527 1421 1307 1098 1400 1502 1669 1775 1642 1725 1626 1512 1503 1330 1345 1185 1142 1148 995 1021 1114 1122 1051 1144 1158 1008 737 756 871 671 663 1178 1608 1383 1718 1284 916 706 928 808 626 1350 1228 812 804 823 731 360 441 737 270 652 836 611 568 470 626 691 495 428 546 506 440 726 628 559 538 784
919 692 580 670 1122 1202 1212 1260 1179 1210 1379 1457 1396 1346 1405 1466 1518 1552 1528 1295 1196 1234 1290 1566 1785 1604 1840 1586 1496 1508 1316 1194 1169 1187 1114 1025 838 1075 1234 1063 969 995 924 924 749 854 1108 760 1366 1329 1497 1611 1287 1032 856 602 510 927 927 438 498 521 577 657 574 376 475 294 449 707 823 775 410 592 625 601 468 298 388 444 435 305 250 452 649
756 648 643 605 699 949 1098 1196 1232 1302 1340 1361 1368 1453 1428 1479 1573 1479 1585 1332 1368 1399 1415 1526 1670 1559 1438 2068 1631 1282 1309 1167 1118 1091 1124 1052 965 1000 1136 841 912 987 953 940 728 702 774 727 1637 1149 1731 1473 1472 898 889 606 641 757 675 758 867 560 668 503 496 408 166 222 424 741 426 598 784 598 997 423 514 246 515 590 473 418 469 393 502
698 718 682 620 540 516 647 924 990 1090 1195 1306 1369 1544 1491 1431 1502 1530 1554 1606 1782 2037 1783 1826 1948 1898 1710 1746 1321 1609 1514 1323 1196 969 1081 1181 1094 1105 1069 1154 1043 1017 1009 1043 767 910 1270 1620 1123 1140 1122 1374 1170 1120 1081 866 834 943 986 721 570 486 230 331 797 715 539 366 383 498 660 739 734 894 803 437 228 311 460 715 509 152 512 577 198
655 678 678 606 563 486 426 482 514 460 634 766 810 1213 1229 1421 1364 1312 1493 1592 1772 2122 1482 1285 1260 1906 1846 1792 1686 1880 1658 1296 1304 1157 1029 966 1130 1088 1093 1175 1144 1197 1024 968 1188 1263 1275 1046 892 471 836 1344 968 972 824 710 801 980 944 697 419 350 420 428 599 576 750 816 289 370 265 715 691 884 449 457 577 415 575 664 397 124 166 181 345
Wind_Speed
26 30 31 32 31 30 29 27 29 30 30 30 31 31 32 31 30 30 30 29 29 30 28 28 28 27 26 25 25 24 23 23 24 24 25 25 25 23 22 20 19 18 19 19 19 19 20 20 20 20 19 20 20 20 20 20 21 21 20 20 19 17 18 19 18 17 17 16 15 15 14 14 14 13 13 14 14 14 15 11 11 10 9 12 13
28 29 28 30 30 29 29 28 29 30 30 31 32 32 32 32 31 30 29 28 30 29 29 29 29 27 27 28 27 25 24 25 25 26 25 25 25 25 23 22 21 20 20 19 20 20 20 19 19 20 20 20 20 20 20 21 21 20 19 19 18 18 19 18 18 17 17 18 17 17 17 16 15 14 14 15 15 15 14 15 14 9 9 13 13
28 28 27 30 30 29 28 28 29 31 31 33 34 33 32 31 31 31 30 30 29 30 30 30 29 28 28 29 28 27 27 26 26 26 26 26 26 26 25 23 22 22 23 22 21 21 20 20 20 20 20 20 20 20 22 21 21 20 20 18 18 18 18 16 16 17 17 18 20 19 19 17 16 14 14 15 15 15 15 14 13 12 11 14 13
28 25 26 29 30 27 28 28 29 31 31 32 32 32 32 31 31 30 31 30 30 30 30 31 30 29 29 30 29 29 29 28 28 27 27 26 25 26 25 25 24 24 24 24 23 22 21 21 20 20 20 20 20 20 21 21 20 18 18 18 18 17 16 14 13 12 12 15 18 19 9 10 12 12 13 14 15 14 13 13 14 15 15 14 15
24 24 25 26 27 26 27 28 29 31 32 32 32 33 32 31 31 30 30 30 30 30 31 31 31 30 31 30 30 31 30 29 29 29 29 27 25 26 26 25 25 25 25 25 24 22 21 21 21 20 19 19 19 20 20 20 20 18 17 17 17 14 12 10 9 10 14 13 17 7 10 10 9 11 12 13 14 13 13 14 14 14 14 14 14
21 23 24 24 25 26 26 27 29 30 33 33 32 32 32 32 32 31 31 31 31 32 32 31 31 31 32 31 30 30 29 29 29 29 28 27 24 27 27 27 27 26 24 25 24 22 21 21 21 21 19 19 19 19 19 19 18 18 17 16 15 13 10 7 7 11 12 15 17 5 9 10 10 9 13 13 13 13 13 13 14 13 13 14 15
23 21 23 24 23 25 24 26 28 28 30 32 32 32 33 33 32 31 31 32 32 33 32 32 30 30 31 30 30 29 28 30 29 29 28 27 27 27 29 28 27 27 27 26 25 23 22 21 20 19 18 16 17 17 17 17 17 17 16 14 13 11 7 5 8 5 11 8 7 8 8 11 11 9 13 13 13 14 15 15 14 13 15 16 15
21 19 23 23 23 26 25 26 29 28 28 29 31 31 32 32 32 32 32 33 32 33 33 31 30 30 30 29 29 27 27 30 30 29 28 27 27 28 28 28 27 27 26 26 24 23 21 20 18 18 17 17 17 16 16 16 16 16 15 14 12 11 11 12 14 16 15 8 9 10 10 12 12 11 13 13 13 14 16 16 15 15 15 17 15
19 21 22 22 25 29 26 26 27 29 28 29 29 30 31 32 32 32 33 33 33 33 33 33 32 31 30 28 27 28 27 26 29 31 30 29 28 28 29 28 27 25 23 21 19 18 19 18 17 16 16 17 16 15 15 15 15 14 14 14 13 11 8 7 10 10 12 nan nan 11 13 13 13 13 13 14 14 13 13 16 17 17 17 17 16
19 20 22 22 24 27 25 26 26 28 28 29 30 31 31 32 32 33 33 33 33 34 34 34 32 31 31 28 27 28 26 25 27 31 30 30 29 29 29 29 27 25 23 23 22 20 18 16 15 14 16 16 15 14 13 12 12 12 13 14 14 12 12 12 13 12 7 8 12 13 12 15 13 12 14 15 16 16 18 19 17 16 16 18 18
19 19 19 22 26 24 24 25 26 27 29 30 31 31 31 32 33 33 33 34 34 34 34 34 32 31 31 28 28 27 28 29 29 30 30 31 30 29 30 28 25 24 23 23 22 21 20 18 16 16 16 16 15 13 13 12 11 10 10 12 11 9 8 10 13 7 nan 13 13 12 13 14 12 13 15 17 18 18 19 17 18 18 19 19 18
20 19 19 22 27 22 23 25 26 27 28 29 31 31 32 32 33 33 33 34 35 35 34 32 30 30 29 27 28 28 29 30 31 32 33 32 31 30 29 28 25 23 21 21 23 22 22 20 19 18 17 16 15 14 13 13 12 10 9 10 10 9 6 12 12 10 10 12 14 12 13 14 14 14 17 19 18 19 19 18 18 18 19 19 18
21 20 22 25 24 22 22 23 26 27 29 30 30 32 33 33 33 33 33 32 33 34 34 33 31 28 26 25 28 29 30 30 32 33 33 31 30 30 29 28 25 22 21 20 21 22 23 22 21 19 17 16 16 15 14 13 12 10 9 8 9 12 14 15 9 10 11 13 13 13 15 14 14 17 17 18 20 19 19 18 18 18 18 19 18
20 22 23 24 22 24 22 23 24 27 28 29 30 31 32 32 33 33 32 31 32 33 33 33 31 28 26 24 27 28 29 30 32 33 32 31 30 29 29 28 25 23 21 20 20 21 22 23 21 20 18 17 15 15 14 13 12 10 9 12 12 9 9 8 9 10 11 12 13 15 15 14 15 16 17 17 17 18 17 17 17 17 17 17 18
22 24 24 25 24 24 26 24 25 26 27 28 29 31 32 32 32 32 31 32 32 32 32 33 32 29 28 25 27 29 29 30 32 33 32 32 31 29 28 28 26 23 21 20 20 20 22 23 22 21 19 17 16 15 15 13 11 9 8 5 8 8 10 4 10 12 12 13 14 15 15 15 15 16 18 18 18 17 17 17 16 16 16 17 17
25 24 27 26 26 25 25 27 26 26 27 27 30 32 32 32 32 31 31 31 31 30 30 31 31 30 29 28 29 29 28 29 30 31 31 32 32 30 29 28 26 23 21 19 19 19 22 23 23 23 21 19 17 16 16 13 10 7 4 4 6 8 12 9 10 10 11 13 14 15 15 15 14 18 18 19 18 18 18 18 17 17 18 17 17
24 26 27 29 28 26 26 26 28 28 25 28 31 31 31 31 31 30 29 30 30 30 31 30 30 31 31 30 29 29 28 29 29 30 31 31 31 31 29 28 26 23 20 19 18 19 21 23 24 24 22 20 18 17 17 14 9 7 3 4 5 9 9 9 11 11 12 15 16 15 15 16 17 18 19 20 19 19 20 20 19 19 19 nan 19
24 25 27 29 28 27 27 28 30 28 29 30 31 31 31 32 31 30 29 29 28 29 29 29 31 32 33 31 30 30 30 29 29 30 30 31 31 30 30 28 26 23 20 19 19 20 21 23 24 24 23 21 20 19 18 15 10 7 3 6 8 8 6 6 12 12 12 13 14 14 14 16 18 19 19 20 20 21 20 21 20 nan nan 21 21
24 22 26 28 27 28 30 29 30 29 32 31 30 31 31 32 31 29 29 28 27 27 29 30 31 32 33 31 30 30 30 30 29 29 30 30 31 30 30 28 26 22 20 20 20 21 22 24 25 25 24 22 22 21 20 17 13 8 8 7 8 5 6 4 13 14 14 13 14 15 15 14 16 19 21 20 21 20 21 21 21 nan nan nan nan
23 23 26 25 27 30 28 28 29 30 32 30 30 32 31 32 31 29 29 28 27 27 27 29 31 32 31 30 30 30 30 29 30 28 29 30 31 30 30 29 25 22 21 21 21 22 23 24 25 25 25 24 24 24 22 18 14 10 9 9 8 7 5 7 12 14 14 14 15 16 18 19 19 20 20 19 19 20 20 nan nan nan nan 22 20
17 24 21 26 29 27 27 26 29 30 31 30 29 32 32 33 30 29 29 29 27 27 28 28 30 30 29 28 28 27 27 27 28 26 30 28 27 30 31 29 25 21 20 22 23 24 25 25 24 25 26 25 24 26 24 20 15 12 11 10 9 6 9 12 13 14 16 17 18 18 20 20 20 20 20 20 nan nan nan nan 20 nan nan nan nan
21 23 22 29 26 26 26 27 27 29 29 28 28 30 29 31 28 27 26 26 27 27 27 26 28 27 27 27 25 25 25 26 25 28 25 28 29 32 30 28 27 22 19 22 24 25 26 26 25 25 26 25 27 22 22 21 16 13 12 12 9 9 9 11 11 14 17 17 18 19 20 20 21 21 20 nan nan nan nan nan nan nan nan nan nan
21 21 25 27 23 23 25 28 29 28 31 31 29 29 29 25 26 25 22 25 26 25 24 25 25 25 25 25 23 24 25 26 24 26 25 28 28 30 31 29 27 25 21 22 24 26 27 27 26 25 25 25 21 21 21 21 19 17 14 12 10 12 11 10 13 14 16 17 18 21 20 20 21 21 nan nan nan nan nan nan nan nan nan nan nan
21 23 23 28 25 26 28 28 29 31 33 31 28 28 26 23 21 21 21 22 23 22 23 24 24 25 24 23 22 23 25 25 27 27 31 27 28 29 30 31 27 25 26 23 24 25 28 27 26 25 21 17 15 20 22 22 20 17 14 13 15 14 12 12 13 15 16 18 18 20 20 20 21 21 nan nan nan nan nan nan nan nan nan nan nan
20 24 22 26 27 29 28 25 28 29 32 29 25 26 25 20 16 17 20 20 20 20 21 22 23 24 23 22 22 22 24 24 26 24 24 26 26 24 25 26 25 23 23 22 22 24 24 24 23 20 17 16 16 20 22 22 19 17 16 16 15 14 13 13 13 15 16 16 17 18 nan nan nan nan nan nan nan nan nan nan nan nan nan nan nan
26 20 22 24 28 28 25 25 25 28 28 24 23 21 19 19 11 14 17 17 17 17 20 22 19 18 22 22 21 23 23 24 26 27 22 24 25 23 23 25 26 24 20 22 23 23 22 24 24 21 16 17 18 21 23 21 20 19 18 16 15 14 14 14 13 14 16 16 18 nan nan nan nan nan nan nan nan nan nan nan nan nan nan nan nan
19 18 18 23 28 33 24 24 26 27 25 21 20 17 17 18 14 12 15 16 10 14 20 22 20 18 21 21 25 24 24 24 28 25 24 23 23 23 22 24 25 24 20 21 24 24 21 23 24 21 17 17 19 21 23 23 21 21 20 18 15 14 13 15 15 15 16 16 18 nan 18 nan nan nan nan nan nan nan nan nan nan nan nan nan nan
20 18 17 22 29 35 26 23 25 29 23 21 22 20 17 19 13 15 17 12 10 10 16 25 20 20 21 20 23 24 24 25 26 23 25 23 22 22 22 23 23 24 19 18 24 23 21 22 22 22 18 17 18 21 23 25 21 21 19 18 15 13 12 13 14 15 18 19 19 17 15 nan nan nan nan nan nan nan nan nan nan nan nan nan nan
18 19 19 23 28 33 26 24 25 25 24 17 20 17 17 17 14 15 10 15 15 12 6 25 22 22 21 21 22 22 20 23 24 24 22 23 22 21 21 21 21 22 nan 17 20 23 21 21 22 21 20 17 18 19 22 24 22 21 19 18 15 13 12 12 14 16 17 18 20 20 nan nan nan nan nan nan nan nan nan nan nan nan nan nan nan
18 18 21 20 33 32 24 24 23 24 24 22 19 16 16 12 13 8 11 17 16 12 10 19 18 24 26 20 23 22 17 17 25 24 23 23 23 20 20 21 19 20 nan 17 19 21 21 20 21 21 20 18 19 20 21 23 22 21 19 18 15 14 13 12 13 13 15 17 22 nan 18 nan nan nan nan nan nan nan nan nan nan nan nan nan nan
17 19 20 26 30 26 31 24 25 20 21 15 12 10 12 9 14 12 15 17 13 13 12 11 16 27 25 23 22 22 20 18 22 22 26 24 24 22 20 19 18 19 19 17 18 19 20 19 20 21 20 19 19 22 19 21 21 19 20 18 15 14 13 13 13 14 14 17 17 18 nan nan nan 16 nan nan nan nan nan nan nan nan nan nan nan
18 22 25 33 26 32 27 23 23 19 15 13 13 14 15 16 17 17 17 17 15 17 13 12 12 19 26 23 18 19 19 22 28 21 23 23 21 23 20 19 17 18 18 17 16 18 18 17 19 20 21 18 19 22 18 20 20 18 19 18 14 14 13 14 14 14 15 16 14 17 nan nan nan nan 15 nan nan nan nan nan nan nan nan nan nan
22 27 33 25 26 26 23 24 19 16 17 16 18 20 20 18 17 18 18 17 17 14 15 14 16 19 25 23 21 21 22 24 27 23 19 19 19 25 20 20 18 17 17 15 16 16 17 16 17 20 21 20 19 20 19 19 19 19 18 19 15 13 14 13 15 15 15 15 15 15 16 18 18 18 nan nan nan nan nan nan nan nan nan nan nan
28 27 29 28 26 22 22 21 20 18 18 18 18 18 18 16 16 18 18 18 16 15 13 15 16 22 30 29 26 25 24 28 29 25 24 19 17 21 20 19 18 16 16 17 15 16 17 15 16 18 20 20 19 20 18 20 19 20 19 18 15 14 13 13 14 15 14 13 14 14 16 16 17 nan nan nan nan nan nan nan nan nan nan nan nan
24 25 28 28 28 24 17 17 19 19 19 19 18 16 14 14 14 15 16 17 16 16 16 15 17 20 28 29 27 25 26 29 32 31 23 21 18 18 18 18 18 17 17 18 15 16 16 15 14 16 19 19 20 20 19 20 20 20 21 19 16 16 14 14 14 14 13 15 13 14 14 15 17 18 nan nan nan nan nan nan nan nan 16 14 12
25 24 26 25 27 28 24 23 23 24 23 22 19 18 16 14 13 11 13 15 18 17 19 18 17 20 23 28 24 25 27 29 32 33 27 24 19 19 16 16 17 17 19 18 16 16 16 16 15 15 18 19 20 21 19 22 21 22 22 20 18 17 15 14 14 14 14 14 15 16 12 14 16 17 nan nan nan nan nan nan 16 16 16 nan 12
24 22 22 24 25 26 25 23 21 18 18 17 18 18 15 16 12 11 12 17 17 19 18 20 20 20 25 33 23 19 24 27 29 30 29 27 23 21 18 15 18 18 22 19 17 16 15 17 16 14 16 18 19 20 21 22 23 23 22 21 20 17 16 15 14 14 14 12 14 15 13 15 17 20 17 nan nan nan 17 18 16 14 13 16 13
23 22 22 24 26 24 23 23 21 17 15 15 14 12 13 14 16 14 15 19 17 19 21 20 21 23 22 34 28 25 23 25 26 26 29 26 26 25 23 22 21 26 24 21 17 17 18 16 15 16 16 17 18 19 20 22 22 22 22 21 20 18 18 16 15 13 13 12 14 12 15 16 18 19 19 17 14 17 16 17 17 15 15 16 nan
23 23 23 24 24 22 21 19 16 14 12 8 7 10 12 15 16 15 14 17 19 23 25 25 23 27 22 26 33 24 27 26 24 23 26 25 25 28 27 27 28 25 22 17 16 16 19 17 15 16 16 17 17 18 19 20 20 20 20 21 21 19 17 15 16 13 12 13 13 12 15 15 17 19 22 20 16 16 16 15 14 nan 13 18 16
25 25 25 24 22 21 19 17 15 12 8 7 8 7 10 14 14 14 14 15 16 19 22 27 27 26 23 25 30 29 27 28 25 22 23 24 25 25 29 30 26 22 19 16 14 15 21 19 17 16 17 16 17 18 18 18 18 18 19 21 21 19 16 17 14 13 12 16 11 13 13 14 16 17 18 20 17 15 13 14 11 11 13 15 16
27 26 26 25 23 20 17 16 16 12 9 11 9 3 7 13 13 11 10 11 13 15 18 25 25 29 23 20 27 29 28 28 27 24 21 21 23 27 28 26 23 21 19 13 8 14 22 22 20 20 17 16 18 18 19 17 17 17 19 20 20 17 15 15 13 10 11 17 9 13 12 15 16 17 15 16 17 18 16 12 11 8 12 14 13
27 27 27 27 24 20 19 17 15 14 13 10 9 6 9 13 10 10 11 12 14 15 18 26 26 29 26 20 22 28 29 28 27 25 21 20 22 25 26 24 23 21 22 19 13 17 22 21 24 21 18 15 18 20 18 16 14 15 17 19 19 17 14 11 12 15 7 11 15 14 11 14 16 16 16 14 13 16 16 16 11 9 10 11 13
27 27 27 27 25 23 22 19 17 16 15 12 12 12 14 12 9 11 12 12 14 16 19 25 29 30 30 25 19 23 27 26 27 26 25 24 23 24 25 24 22 23 24 21 17 19 22 21 20 23 20 17 17 20 17 15 14 14 17 18 18 16 14 12 11 12 9 11 16 12 15 14 15 16 15 14 14 15 14 12 17 14 11 10 13
28 29 28 27 24 22 21 20 19 18 17 17 15 15 15 13 11 12 12 12 12 14 17 21 26 30 32 30 25 22 26 27 27 26 24 25 25 24 24 22 22 28 27 24 19 18 21 16 23 23 21 17 15 23 17 14 14 16 16 15 18 16 12 13 12 13 10 11 11 14 14 15 16 15 15 14 12 14 15 14 15 12 15 12 11
28 28 28 26 23 22 22 21 21 20 18 17 17 16 16 14 15 15 14 13 12 14 16 19 24 28 30 32 27 24 25 27 27 26 25 23 24 25 26 24 24 28 29 25 21 17 17 21 22 21 18 17 23 20 19 18 15 17 17 18 18 14 12 15 17 12 12 13 13 13 14 15 16 15 14 13 12 12 13 14 15 15 16 13 13
27 27 26 25 24 22 22 22 21 21 19 18 17 16 18 16 16 15 15 15 16 17 19 20 22 26 29 31 29 27 24 24 26 27 25 24 25 26 26 25 24 29 30 25 23 25 18 19 21 23 23 27 28 23 21 19 20 19 12 17 20 20 15 17 19 14 13 11 13 14 15 15 16 16 14 14 12 13 14 16 14 15 16 13 14
24 24 25 26 26 24 22 21 20 19 18 19 19 17 17 17 15 14 13 15 16 18 20 23 24 26 29 30 32 31 28 27 26 25 25 24 25 27 27 26 27 27 28 26 25 26 21 15 21 25 25 27 28 24 21 21 22 15 16 19 17 16 15 18 16 15 13 12 11 15 14 16 17 16 15 15 13 14 14 15 16 16 16 16 16
23 24 25 25 27 26 23 22 19 19 20 19 19 18 17 17 15 14 15 15 17 19 21 23 27 31 28 29 32 33 31 29 27 27 26 25 26 28 29 29 27 26 27 26 25 26 24 17 20 24 24 26 25 22 22 21 19 19 19 20 13 13 10 14 15 12 15 16 17 14 15 16 15 15 15 15 14 15 16 15 16 17 17 18 17
24 24 25 27 26 25 25 24 22 20 21 20 18 19 17 17 16 16 16 17 18 20 22 25 25 31 29 32 32 33 35 32 28 29 28 29 29 29 30 30 29 27 27 27 26 25 22 18 22 23 24 24 24 21 22 20 21 19 20 18 16 15 12 9 12 15 15 17 19 20 18 17 15 15 15 15 14 14 16 15 15 17 17 20 19
24 24 25 26 26 25 25 24 23 20 20 20 20 17 18 18 18 18 17 18 19 20 22 25 26 28 29 31 32 35 36 36 32 29 29 29 29 30 30 30 30 29 28 28 28 26 25 23 25 26 25 23 22 21 21 20 20 20 20 22 19 17 13 8 12 14 14 15 18 20 19 20 17 16 16 16 14 17 15 16 15 18 17 17 19
25 25 25 25 25 25 24 25 24 21 20 19 18 20 19 20 20 20 19 19 19 21 23 24 25 28 27 30 32 34 37 38 36 32 28 28 29 31 30 28 29 30 28 27 27 27 27 27 28 25 21 21 22 21 22 21 21 20 18 20 17 16 13 9 14 14 15 18 17 18 20 18 16 19 17 17 15 17 16 16 16 16 21 18 16
Wind_Direction
301 301 298 297 300 300 300 301 302 304 305 306 306 306 307 309 309 311 313 314 319 321 320 319 320 321 322 324 319 319 322 322 321 321 322 321 318 316 317 321 322 322 321 318 313 311 310 307 308 307 304 306 307 305 301 300 297 299 299 298 299 300 297 294 291 291 286 279 273 267 261 259 253 244 238 236 229 222 218 234 259 251 256 254 247
304 302 298 298 298 301 305 304 304 304 305 306 306 307 307 309 310 313 316 317 318 318 320 321 320 320 323 320 318 321 324 325 322 322 321 320 323 322 323 325 329 325 318 321 319 314 312 312 309 308 307 309 308 307 305 303 301 300 300 301 302 300 299 298 300 301 295 291 281 270 264 258 251 243 244 239 232 228 228 229 235 254 255 253 248
301 305 299 299 300 303 303 305 306 305 305 308 310 309 309 311 312 316 317 318 317 319 322 321 319 321 321 318 320 322 323 321 319 320 321 324 325 325 329 329 328 326 322 320 318 316 314 313 312 311 312 311 310 309 307 304 305 303 304 304 304 305 304 306 307 307 313 306 297 288 276 258 247 248 249 248 241 238 237 241 250 253 253 248 248
302 304 303 300 301 302 306 305 306 307 308 308 309 310 311 312 315 317 319 319 319 320 321 320 320 320 320 320 321 322 322 321 322 323 323 320 322 329 329 331 331 326 322 322 320 318 316 315 312 309 312 312 310 311 310 307 304 306 306 307 308 307 310 315 318 323 320 324 320 320 289 270 256 246 248 251 252 248 249 253 255 255 256 252 251
301 305 303 306 305 305 306 307 308 309 310 310 311 312 313 315 316 318 319 320 320 319 319 319 320 319 319 320 322 321 321 321 322 321 320 322 329 332 331 331 329 328 322 318 317 318 316 311 309 309 310 311 312 313 311 310 308 308 310 311 308 310 312 320 339 351 6 346 4 53 279 279 266 251 254 256 256 254 256 256 255 257 260 257 256
298 301 306 307 308 308 306 309 310 310 312 313 313 312 314 316 318 319 318 318 318 318 318 319 319 319 318 320 321 320 320 320 318 317 321 326 330 330 331 331 327 322 318 315 315 319 317 314 312 310 311 317 318 314 312 309 309 309 311 310 312 309 316 337 4 36 29 19 36 27 274 273 272 271 263 261 259 261 263 266 262 264 274 274 266
300 304 309 310 308 309 308 310 309 309 311 313 314 315 317 318 319 319 319 318 317 318 317 317 317 317 318 320 320 320 320 317 318 321 324 327 327 329 330 327 325 322 320 318 320 319 318 315 311 309 310 313 314 314 314 311 309 307 308 311 311 316 322 353 51 58 72 68 331 284 281 281 283 274 260 263 268 266 260 257 259 261 263 259 254
300 308 309 309 310 306 310 311 312 310 311 312 313 316 318 319 321 320 320 318 316 316 317 316 313 314 315 316 319 317 315 317 322 321 321 324 324 328 327 326 324 318 320 319 321 320 317 312 311 308 309 312 316 317 313 313 310 310 312 318 323 329 349 20 24 30 43 31 294 294 290 282 278 281 271 266 266 273 278 271 264 262 260 259 264
306 311 308 306 303 309 309 310 312 314 314 314 315 316 319 321 322 321 319 317 316 316 317 315 313 313 314 316 317 314 311 312 319 321 322 322 324 326 326 323 320 320 318 318 312 313 313 314 314 314 313 314 315 316 316 313 310 312 319 329 338 353 12 40 62 72 47 nan nan 303 296 292 287 284 274 269 266 263 274 285 282 268 260 261 260
307 307 306 303 306 307 307 308 311 314 315 315 317 318 321 322 322 321 318 317 316 317 316 314 314 315 314 317 317 313 308 309 315 321 323 323 323 324 324 322 318 314 314 313 313 311 308 309 314 318 315 315 316 313 313 309 308 311 330 344 352 3 23 30 41 44 288 284 275 262 255 270 282 277 269 266 262 262 261 259 261 264 272 269 266
303 301 299 298 306 303 304 308 311 313 315 316 318 321 322 323 323 321 319 317 317 317 316 314 314 312 312 316 317 311 305 304 306 313 316 317 323 325 326 322 314 315 317 317 315 312 308 304 305 310 312 313 313 312 313 312 309 321 336 348 20 12 39 57 75 321 nan 298 295 288 276 278 279 279 278 273 267 265 264 265 263 266 268 269 269
301 295 297 293 298 302 306 309 312 314 316 319 321 322 324 325 323 321 319 317 317 317 314 311 308 309 310 314 315 308 303 304 306 311 314 317 321 324 325 321 314 315 315 313 311 309 305 302 301 303 305 312 315 314 315 318 315 327 345 1 14 49 55 71 67 321 315 294 286 289 285 279 280 277 275 275 274 275 272 272 269 268 268 268 267
302 304 287 293 304 303 308 309 313 316 318 321 323 324 325 324 323 320 318 317 316 314 312 309 306 305 308 313 311 305 304 305 308 311 315 318 320 324 326 321 315 314 315 312 309 308 307 304 303 304 305 307 312 316 315 317 323 328 356 12 35 44 55 60 25 304 313 309 305 291 286 282 279 280 280 280 282 277 275 275 273 273 273 273 272
303 297 294 296 304 308 307 310 313 317 320 323 325 325 326 326 324 322 319 316 315 312 309 308 306 306 307 309 306 304 306 307 309 311 316 318 319 321 325 322 317 316 315 313 307 307 307 305 304 302 303 304 311 314 316 318 324 345 0 27 43 73 106 85 293 309 302 303 304 293 291 293 289 287 285 282 279 275 276 275 276 279 279 279 277
302 302 300 298 306 313 309 310 313 317 321 324 325 326 328 327 325 321 318 316 314 310 308 308 307 305 308 309 301 300 306 310 312 314 315 319 321 323 325 323 318 317 318 313 306 306 307 307 305 302 300 304 310 314 314 319 329 349 18 50 88 96 113 66 309 315 318 313 309 305 301 300 298 294 291 289 284 281 280 279 277 277 279 280 278
303 304 301 302 310 311 314 312 312 315 321 324 326 328 329 328 324 321 319 316 313 310 308 308 307 307 306 303 301 302 307 310 312 315 317 320 321 324 326 324 319 317 318 311 304 305 307 307 306 304 303 304 309 312 313 321 327 341 355 79 92 99 98 98 305 302 311 310 308 303 303 301 295 297 299 295 289 289 287 284 282 282 280 281 280
304 307 304 309 313 314 315 317 314 314 317 324 326 327 328 326 323 319 318 316 311 309 307 304 305 301 300 303 304 304 307 310 312 314 317 319 322 324 327 326 320 317 318 312 303 305 307 307 306 305 305 305 307 310 312 316 327 309 2 82 84 90 96 96 304 309 312 315 314 313 315 312 305 303 301 300 300 296 290 286 286 286 287 nan 285
307 307 309 312 313 315 312 312 314 320 322 322 324 325 325 325 322 318 314 312 310 307 301 299 301 301 303 305 306 307 309 309 312 313 317 320 321 324 326 328 322 317 317 312 304 305 308 307 306 306 308 307 307 307 308 313 311 321 338 50 59 72 87 115 301 305 302 299 300 303 306 311 316 313 309 304 300 294 295 293 290 nan nan 285 285
303 309 310 312 311 310 309 311 320 320 325 324 325 325 324 324 322 318 314 311 309 305 300 299 301 302 305 308 307 308 309 309 310 312 314 318 319 322 326 327 323 317 317 312 306 307 309 309 308 308 309 308 305 304 306 308 314 327 13 39 66 77 107 76 302 309 304 302 303 304 307 304 308 307 304 304 303 300 295 294 293 nan nan nan nan
305 309 309 311 307 308 307 318 326 323 327 325 322 329 327 326 323 319 316 312 309 304 300 300 304 305 308 310 308 308 309 308 310 312 316 317 321 326 324 325 324 319 317 311 307 307 310 309 310 309 308 307 304 302 304 308 314 343 1 36 40 64 50 308 278 280 287 287 291 299 306 312 312 305 302 297 297 300 297 nan nan nan nan 285 285
304 308 308 306 310 303 312 323 327 324 327 326 324 328 329 328 324 321 319 316 311 308 304 304 306 308 308 309 308 309 307 306 311 315 317 321 324 319 324 325 323 321 317 310 307 309 309 308 310 309 309 307 305 303 304 311 324 341 8 26 33 31 293 294 301 301 299 303 300 298 300 301 302 302 299 301 nan nan nan nan 294 nan nan nan nan
308 304 312 301 301 310 323 321 321 324 326 324 323 326 325 329 325 323 321 317 313 310 309 312 313 309 313 307 307 304 303 303 311 312 319 316 317 319 322 325 322 319 312 307 306 309 310 309 310 311 309 309 314 308 307 313 328 343 6 17 12 326 300 290 297 295 296 296 299 300 303 304 302 301 299 nan nan nan nan nan nan nan nan nan nan
307 305 301 294 302 311 312 315 318 321 325 321 320 320 322 322 320 318 317 320 317 316 313 313 312 311 312 310 306 302 303 301 307 313 315 320 317 318 319 322 322 316 309 304 305 308 310 310 312 315 320 322 323 304 306 311 322 348 360 357 357 302 298 301 291 293 291 293 298 305 305 301 301 304 nan nan nan nan nan nan nan nan nan nan nan
307 298 298 292 304 306 303 308 319 326 325 319 317 318 311 313 312 314 312 315 316 317 315 314 312 313 315 311 306 304 300 297 305 316 307 311 309 316 317 319 320 313 309 306 305 308 311 312 315 322 324 322 317 305 305 309 314 321 335 338 304 309 313 304 296 294 297 298 297 302 304 307 305 305 nan nan nan nan nan nan nan nan nan nan nan
290 290 291 298 306 301 299 315 331 328 328 319 315 311 304 295 296 312 314 310 313 316 312 312 310 313 318 315 311 302 299 290 300 303 308 307 310 311 311 313 313 313 315 312 309 304 312 311 312 322 322 319 318 303 302 304 311 312 300 300 309 303 295 294 305 306 297 294 299 301 nan nan nan nan nan nan nan nan nan nan nan nan nan nan nan
278 291 303 305 300 290 311 328 325 324 322 315 311 302 288 272 282 312 307 299 307 314 306 300 293 305 311 310 300 296 299 301 301 303 305 305 306 308 311 309 310 310 317 310 310 307 312 311 314 319 319 314 305 299 300 302 303 304 303 302 307 315 307 299 295 303 301 301 301 nan nan nan nan nan nan nan nan nan nan nan nan nan nan nan nan
275 286 308 305 295 306 315 318 314 310 314 307 306 288 287 296 282 272 282 264 281 310 307 295 293 303 298 295 294 299 300 299 300 303 303 305 303 304 306 305 308 308 312 308 310 307 311 309 313 317 313 308 303 299 300 304 304 303 304 311 311 306 306 305 309 301 296 302 301 nan 311 nan nan nan nan nan nan nan nan nan nan nan nan nan nan
295 295 297 302 311 305 303 305 309 305 309 307 310 309 300 297 282 272 268 255 268 294 312 294 296 295 302 298 294 301 302 302 302 301 306 301 301 299 298 299 304 305 308 309 307 304 308 308 311 315 309 303 304 301 301 300 302 302 302 302 307 306 306 301 295 300 307 305 312 310 315 nan nan nan nan nan nan nan nan nan nan nan nan nan nan
290 298 296 297 295 287 294 305 297 299 295 289 286 290 295 276 256 250 271 282 299 291 299 295 296 298 303 299 296 291 293 303 303 303 307 305 301 296 293 295 299 301 nan 303 307 303 307 306 306 311 308 303 295 297 297 299 301 299 304 304 303 301 299 302 309 315 311 315 303 307 nan nan nan nan nan nan nan nan nan nan nan nan nan nan nan
284 287 291 294 286 289 290 286 287 293 289 284 283 292 284 264 261 300 272 281 298 306 307 292 301 299 290 291 282 283 275 286 301 297 301 307 298 292 289 292 293 293 nan 296 298 302 303 304 306 309 312 305 296 296 297 297 305 305 304 304 306 302 296 301 297 303 300 295 298 nan 312 nan nan nan nan nan nan nan nan nan nan nan nan nan nan
283 285 278 267 265 276 283 283 278 267 264 268 269 274 276 269 272 292 294 287 293 286 287 297 318 300 288 291 298 291 279 268 278 290 297 298 300 295 285 286 289 288 288 289 292 297 298 301 305 307 305 304 296 295 304 303 303 307 299 304 305 299 293 292 296 296 304 297 303 310 nan nan nan 320 nan nan nan nan nan nan nan nan nan nan nan
274 273 258 254 254 257 254 262 267 273 271 288 301 303 303 296 302 303 295 298 287 303 303 304 286 293 302 313 314 300 288 277 259 256 268 286 280 288 285 288 284 281 285 287 290 292 295 299 305 306 302 298 293 293 304 305 304 303 303 296 296 290 290 292 298 301 295 299 306 311 nan nan nan nan 324 nan nan nan nan nan nan nan nan nan nan
268 264 267 269 272 278 284 285 295 294 299 303 304 302 304 302 301 301 299 300 304 303 299 296 311 290 301 313 309 306 302 288 274 266 255 261 288 286 287 280 276 277 278 284 289 287 287 292 301 302 302 301 296 296 304 304 303 300 297 293 291 289 287 291 294 301 299 304 313 314 318 322 326 319 nan nan nan nan nan nan nan nan nan nan nan
259 261 269 282 287 291 302 307 306 301 292 294 301 299 300 297 302 302 306 306 307 305 297 285 292 305 300 302 305 310 303 293 288 270 255 248 249 276 276 270 273 273 268 273 277 281 283 289 292 297 302 302 296 295 300 303 304 297 293 293 290 286 285 288 293 297 300 306 304 311 312 319 327 nan nan nan nan nan nan nan nan nan nan nan nan
267 265 269 277 289 289 290 288 281 276 277 281 284 282 281 290 298 299 304 307 301 299 294 292 282 288 297 297 305 309 304 293 290 284 264 253 232 247 267 264 265 268 263 267 269 276 277 282 282 291 295 297 296 294 298 300 303 298 292 290 290 284 283 285 293 295 302 297 311 307 313 324 329 328 nan nan nan nan nan nan nan nan 341 339 325
266 267 272 282 293 304 308 304 301 301 301 298 298 302 297 282 282 287 299 300 297 300 299 295 296 290 289 289 299 307 303 294 291 285 280 267 250 232 242 254 265 267 262 259 266 275 273 280 281 281 288 295 293 293 293 295 297 295 290 289 287 287 286 290 295 299 302 310 313 306 317 321 325 327 nan nan nan nan nan nan 342 344 339 nan 317
272 276 281 285 289 300 307 306 306 312 316 313 316 314 304 302 305 314 307 291 297 301 301 305 300 289 282 289 295 293 295 293 291 290 283 280 270 254 230 240 257 266 260 257 264 269 269 272 277 280 281 285 292 292 290 289 291 294 291 288 287 289 288 286 294 300 298 310 306 310 314 316 318 323 318 nan nan nan 337 341 339 330 324 327 330
271 273 283 289 292 299 306 310 317 323 327 327 333 334 325 324 323 318 309 299 304 299 295 294 291 292 290 292 298 298 296 295 295 290 284 272 262 256 239 220 228 233 236 237 242 255 265 264 271 278 281 280 285 287 286 285 285 290 291 289 291 290 287 290 295 299 304 311 303 312 312 318 324 313 304 309 321 325 332 340 341 338 332 331 nan
270 272 276 284 289 291 297 304 308 308 317 333 338 336 331 326 320 315 310 308 311 304 300 296 298 290 295 296 294 297 299 296 294 291 284 272 259 253 251 239 227 227 227 222 228 259 262 258 265 272 276 283 283 286 282 279 282 285 289 290 286 287 287 290 289 305 300 297 299 310 308 320 315 317 315 321 333 327 330 337 337 nan 336 334 344
268 273 276 283 286 289 291 291 288 292 301 303 307 322 341 341 336 327 320 317 314 308 300 295 285 284 287 288 290 299 297 297 295 290 283 275 267 263 261 254 248 238 231 221 219 254 266 269 267 273 281 282 283 280 279 276 276 285 287 283 284 286 286 289 299 295 294 292 293 293 311 313 317 313 318 314 322 326 323 326 338 334 318 335 343
268 274 280 280 280 278 278 274 278 283 281 294 285 242 354 347 338 332 330 322 317 308 303 286 285 283 280 284 293 292 295 298 298 292 285 277 268 267 266 262 259 262 259 246 242 240 265 262 257 258 262 281 281 279 277 272 277 284 282 281 279 278 282 284 292 289 292 289 293 306 313 311 307 314 321 313 324 332 324 330 319 324 328 324 338
265 270 275 278 279 279 274 274 273 272 285 285 234 229 315 329 320 311 310 312 311 307 302 299 299 288 282 287 291 296 296 301 301 294 287 282 273 270 271 265 263 259 254 241 219 260 259 262 259 259 267 260 275 281 278 276 279 284 286 279 276 269 264 285 295 284 283 292 299 303 295 305 306 311 315 322 330 324 322 320 314 320 329 324 320
270 270 268 271 271 272 272 269 268 269 271 255 230 248 289 303 294 289 294 295 296 289 286 292 293 291 287 282 281 294 298 306 307 304 297 294 290 277 270 268 270 264 253 246 224 247 256 262 268 266 253 243 254 275 264 265 270 281 272 272 276 276 267 260 268 264 280 300 291 299 304 303 303 307 315 324 323 322 320 319 322 328 326 330 313
265 266 266 267 271 272 274 273 272 269 267 261 263 275 283 280 280 279 277 282 280 279 287 291 292 294 296 295 296 300 306 305 307 309 304 297 296 289 277 272 266 265 260 259 257 231 261 254 263 261 258 264 267 269 272 257 255 268 282 276 272 276 281 286 287 292 297 291 295 304 301 300 304 313 317 322 318 315 317 321 298 314 318 320 316
266 267 270 273 276 273 274 276 276 274 276 273 275 278 279 277 274 272 278 279 281 283 281 286 290 294 297 298 296 296 299 300 301 305 303 301 295 288 284 278 275 271 267 266 262 254 242 270 268 265 274 261 262 260 261 253 250 250 247 270 263 270 276 275 290 280 292 287 306 302 305 302 305 311 316 316 309 313 308 304 312 312 305 318 318
264 267 272 275 275 277 275 276 277 278 275 276 275 274 274 277 275 277 282 277 272 274 280 279 281 287 292 294 296 293 288 296 300 300 300 298 298 295 292 287 280 276 274 271 268 257 243 235 265 272 265 256 247 247 251 248 244 241 253 246 245 251 252 268 280 276 288 282 289 307 304 305 305 310 314 317 318 311 308 301 308 303 309 311 313
261 265 269 270 269 271 272 272 273 275 272 271 273 276 275 280 282 284 286 283 275 273 273 279 282 283 285 290 294 296 293 290 291 295 295 297 297 297 295 289 279 278 276 272 269 272 265 262 264 262 262 258 256 252 250 241 239 245 240 241 237 244 252 268 278 267 284 286 300 297 302 307 306 311 319 317 323 309 303 301 301 304 301 306 309
262 266 268 268 266 266 267 267 267 266 268 270 276 277 279 282 286 286 284 285 282 275 277 284 285 280 284 287 289 294 298 296 289 288 290 294 295 294 293 290 286 285 278 272 272 269 273 268 270 271 269 262 259 255 251 245 244 244 250 248 238 237 247 261 255 277 283 293 293 291 294 301 306 305 312 316 315 312 304 300 300 300 304 306 302
260 263 266 268 268 266 264 262 259 259 260 263 266 279 282 285 287 290 290 286 281 281 283 287 287 288 289 286 287 291 295 297 294 288 284 287 290 292 294 294 291 288 283 276 273 274 279 282 275 272 272 267 261 260 254 248 243 245 246 251 255 245 226 262 290 283 284 290 288 294 295 293 294 300 302 306 304 306 300 297 293 296 298 296 302
263 262 264 265 265 264 261 258 254 256 254 258 261 267 277 287 287 289 288 284 283 282 282 286 289 288 290 288 287 290 291 295 298 295 291 287 285 288 292 294 293 291 285 282 278 281 285 281 274 268 270 270 264 260 260 252 246 246 251 247 245 245 233 229 263 270 277 275 276 289 291 297 300 296 297 302 311 305 300 297 297 299 291 291 304
264 262 263 263 262 261 259 259 258 257 255 252 252 260 267 276 283 283 285 287 285 284 283 279 285 288 287 288 289 287 289 292 296 297 297 293 284 284 289 291 291 289 287 286 284 285 283 282 276 274 272 279 272 270 264 257 250 248 251 251 250 252 240 246 265 275 271 268 273 286 290 294 292 293 301 302 304 304 301 298 297 297 299 304 302